{"data":{"norad_id":55481,"intl_designator":"2023-015AJ","name":"STARLINK-5694","alt_names":[],"object_type":"PAYLOAD","status":"ACTIVE","operator":null,"country":"US","launch_date":"2023-02-02","launch_site_code":"AFETR","launch_vehicle":null,"mission":null,"orbit_class":"UNKNOWN","rcs_meters":null,"size_class":null,"mass_kg":null,"dimensions":null,"purposes":["comms"],"wikipedia_slug":null,"has_3d_model":false,"image_url":null,"decayed_at":null,"tle_current":{"epoch":"2026-05-25T01:26:59.004096Z","epoch_age_seconds":79946,"freshness":"FRESH","line1":"1 55481U 23015AJ  26145.06040514  .00000215  00000+0  17367-4 0  9997","line2":"2 55481  43.0041 268.5713 0001996 289.6376  70.4260 15.27577418182271","mean_motion":15.27577418,"eccentricity":0.0001996,"inclination_deg":43.0041,"raan_deg":268.5713,"arg_perigee_deg":289.6376,"mean_anomaly_deg":70.426,"bstar":1.7367e-5,"rev_number":18227,"period_min":94.266908048781,"perigee_km":481.68733319945,"apogee_km":484.42632177538,"semimajor_km":6861.1938274874,"source":"CELESTRAK","updated_at":"2026-05-25T13:38:17.809162Z"}}}